FENGYUN 1C DEB, 30709

Orbit data source: Space-Track

FENGYUN 1C DEB, 30709 is space debris in SSO originally from a launch on Mon, 10 May 1999 UTC launched from the Taiyaun Space Center, China (TSC). Fengyun 1C debris stems from the Chinese weather satellite Fengyun-1C, which was intentionally destroyed by a Chinese anti-satellite missile in 2007. This event dramatically increased the amount of space debris, with thousands of trackable fragments posing hazards to satellites and human spaceflight. The Fengyun 1C debris cloud has become a focal point in discussions about space sustainability and the need for international regulations to prevent the creation of new debris.

Loading next visibility...
Identifier
30709, 1999-025ART
Orbit
SSO
Country
Flag of CNCN / PRC
Related business
Manufacturer
Unknown
Mission
Spacecraft
Bus & Motor
Unknown
Mass
Unknown
Launch date (UTC)
1999-05-10 (27 years ago)
Launch vehicle
Unknown
Launch site
Taiyaun Space Center, China (TSC)
Object type
Payload
Rocket body
Debris
Shape & HBR
Unknown shape, 0.1 m
Radar Cross Section
Medium (>0.1 m² and <1 m²)

Expand to show TLE details & history
Last TLE update: 9 hours ago

TLE from 9 hours ago
0 FENGYUN 1C DEB
1 30709U 99025ART 26208.20292514  .00003632  00000-0  16896-2 0  9993
2 30709  99.1529 198.3009 0082042 348.9084  11.0280 14.19454750992077
Epoch: 2026-07-27T04:52Z
TLE epoch observation values (Epoch: 2026-07-27T04:52:12.732Z)
Latitude
0.00002°
Longitude
-179.64203°
Altitude
772.081 km
Speed
7.498 km/s
True Right ascension
13h 13m 12s
True Declination
0° 00' 00"
Sunlit
Object was in daylight at epoch
Visualization orbit readout
Latitude
Unknown
Longitude
Unknown
Altitude
Unknown
Speed
Unknown
Apparent Right ascension
Unknown
Apparent Declination
Unknown
Sunlit
N/A
Visualization observer readout
Local Sidereal Time
02:52:29
Azimuth
Unknown
Elevation
Unknown
Doppler factor
Unknown
Orbital elements
Apogee altitude
883.469 km
Perigee altitude
765.287 km
Semi-major axis
7,202.515 km
Eccentricity
0.0082
Inclination
99.1529°
RAAN
198.3009°
Arg. of periapsis
348.9084°
True anomaly
11.20966°
Mean anomaly
11.028°
Eccentric anomaly
11.11865°
Mean motion
3.55072 °/min
Orbital period
101.39 mins
BSTAR
0.0016896
Loading maneuver chart data...
Computing Atmospheric mass density...

Documentation

Showing up to 5 results
|